| time (UTC) | temp C | wind direction | speed KPH | gust KPH | rain 1hr cm | rain 24hr cm | rain mn cm | humidity % | barometer mb |
| 20260906105902 | 18 | 25 | 0.0 | 0.0 | 0.00 | 0.00 | 0.00 | 99 | 1014.1 |
| 20260906105358 | 18 | 36 | 0.0 | 0.0 | 0.00 | 0.00 | 0.00 | 99 | 1014.0 |
| 20260906104854 | 18 | 352 | 0.0 | 0.0 | 0.00 | 0.00 | 0.00 | 99 | 1014.1 |
| 20260906104352 | 18 | 5 | 0.0 | 0.0 | 0.00 | 0.00 | 0.00 | 99 | 1014.0 |
| 20260906103851 | 18 | 11 | 0.0 | 0.0 | 0.00 | 0.00 | 0.00 | 99 | 1014.1 |
| 20260906103349 | 18 | 335 | 0.0 | 0.0 | 0.00 | 0.00 | 0.00 | 99 | 1014.1 |
| 20260906102846 | 18 | 346 | 0.0 | 0.0 | 0.00 | 0.00 | 0.00 | 99 | 1013.8 |
| 20260906102344 | 18 | 343 | 0.0 | 0.0 | 0.00 | 0.00 | 0.00 | 99 | 1013.8 |
| 20260906101840 | 18 | 24 | 0.0 | 0.0 | 0.00 | 0.00 | 0.00 | 99 | 1013.9 |
| 20260906101335 | 18 | 0 | 0.0 | 0.0 | 0.00 | 0.00 | 0.00 | 99 | 1014.0 |
| 20260906100831 | 18 | 24 | 0.0 | 0.0 | 0.00 | 0.00 | 0.00 | 99 | 1013.8 |
| 20260906100329 | 18 | 16 | 0.0 | 0.0 | 0.00 | 0.00 | 0.00 | 99 | 1013.8 |
| 20260906095825 | 18 | 17 | 0.0 | 0.0 | 0.00 | 0.00 | 0.00 | 98 | 1013.8 |
| 20260906095320 | 18 | 355 | 0.0 | 0.0 | 0.00 | 0.00 | 0.00 | 99 | 1014.0 |
| 20260906094819 | 18 | 346 | 0.0 | 0.0 | 0.00 | 0.00 | 0.00 | 98 | 1013.8 |
| 20260906094314 | 18 | 8 | 0.0 | 0.0 | 0.00 | 0.00 | 0.00 | 98 | 1013.9 |
| 20260906093811 | 18 | 352 | 0.0 | 0.0 | 0.00 | 0.00 | 0.00 | 98 | 1013.9 |
| 20260906093307 | 18 | 340 | 0.0 | 0.0 | 0.00 | 0.00 | 0.00 | 98 | 1013.5 |
| 20260906092801 | 18 | 355 | 0.0 | 0.0 | 0.00 | 0.00 | 0.00 | 98 | 1013.3 |
| 20260906092255 | 18 | 324 | 0.0 | 0.0 | 0.00 | 0.00 | 0.00 | 98 | 1013.5 |
| 20260906091751 | 18 | 327 | 0.0 | 0.0 | 0.00 | 0.00 | 0.00 | 98 | 1013.5 |
| 20260906091247 | 18 | 313 | 0.0 | 0.0 | 0.00 | 0.00 | 0.00 | 98 | 1013.4 |
| 20260906090744 | 18 | 324 | 0.0 | 0.0 | 0.00 | 0.00 | 0.00 | 98 | 1013.4 |
| 20260906090242 | 18 | 0 | 0.0 | 0.0 | 0.00 | 0.00 | 0.00 | 98 | 1013.3 |
| 20260906085742 | 18 | 288 | 0.0 | 0.0 | 0.00 | 0.00 | 0.00 | 98 | 1013.4 |
| 20260906085241 | 18 | 284 | 0.0 | 0.0 | 0.00 | 0.00 | 0.00 | 98 | 1013.5 |
| 20260906084736 | 18 | 279 | 0.0 | 0.0 | 0.00 | 0.00 | 0.00 | 98 | 1013.5 |
| 20260906084231 | 18 | 357 | 0.0 | 0.0 | 0.00 | 0.00 | 0.00 | 97 | 1013.5 |
| 20260906083725 | 18 | 338 | 0.0 | 0.0 | 0.00 | 0.00 | 0.00 | 97 | 1013.5 |
| 20260906083220 | 19 | 308 | 0.0 | 0.0 | 0.00 | 0.00 | 0.00 | 97 | 1013.5 |
| 20260906082716 | 19 | 242 | 0.0 | 0.0 | 0.00 | 0.00 | 0.00 | 98 | 1013.7 |
| 20260906082210 | 19 | 234 | 0.0 | 0.0 | 0.00 | 0.00 | 0.00 | 98 | 1013.5 |
| 20260906081707 | 19 | 342 | 0.0 | 0.0 | 0.00 | 0.00 | 0.00 | 98 | 1013.7 |
| 20260906081156 | 18 | 342 | 0.0 | 0.0 | 0.00 | 0.00 | 0.00 | 98 | 1013.5 |
| 20260906080653 | 18 | 347 | 0.0 | 0.0 | 0.00 | 0.00 | 0.00 | 99 | 1013.8 |
| 20260906080149 | 18 | 353 | 0.0 | 0.0 | 0.00 | 0.00 | 0.00 | 98 | 1013.6 |
| 20260906075648 | 18 | 75 | 0.0 | 0.0 | 0.00 | 0.00 | 0.00 | 99 | 1013.5 |
| 20260906075142 | 18 | 58 | 0.0 | 0.0 | 0.00 | 0.00 | 0.00 | 99 | 1013.6 |
| 20260906074637 | 18 | 351 | 0.0 | 0.0 | 0.00 | 0.00 | 0.00 | 99 | 1013.4 |
| 20260906074136 | 18 | 354 | 0.0 | 0.0 | 0.00 | 0.00 | 0.00 | 98 | 1013.4 |
| 20260906073631 | 18 | 357 | 0.0 | 0.0 | 0.00 | 0.00 | 0.00 | 98 | 1013.5 |
| 20260906073127 | 18 | 51 | 0.0 | 0.0 | 0.00 | 0.00 | 0.00 | 98 | 1013.4 |
| 20260906072622 | 18 | 156 | 0.0 | 0.0 | 0.00 | 0.00 | 0.00 | 98 | 1013.5 |
| 20260906072118 | 18 | 114 | 0.0 | 0.0 | 0.00 | 0.00 | 0.00 | 98 | 1013.3 |
| 20260906071614 | 18 | 55 | 0.0 | 0.0 | 0.00 | 0.00 | 0.00 | 98 | 1013.5 |
| 20260906071109 | 18 | 74 | 0.0 | 0.0 | 0.00 | 0.00 | 0.00 | 98 | 1013.5 |
| 20260906070606 | 18 | 108 | 0.0 | 0.0 | 0.00 | 0.00 | 0.00 | 98 | 1013.6 |
| 20260906070101 | 18 | 109 | 0.0 | 0.0 | 0.00 | 0.00 | 0.00 | 98 | 1013.7 |
| 20260906065601 | 18 | 85 | 0.0 | 0.0 | 0.00 | 0.00 | 0.00 | 98 | 1013.6 |
| 20260906065056 | 18 | 100 | 0.0 | 0.0 | 0.00 | 0.00 | 0.00 | 98 | 1013.6 |
| 20260906064551 | 18 | 173 | 0.0 | 0.0 | 0.00 | 0.00 | 0.00 | 98 | 1013.9 |
| 20260906064046 | 18 | 176 | 0.0 | 0.0 | 0.00 | 0.00 | 0.00 | 98 | 1013.7 |
| 20260906063541 | 18 | 78 | 0.0 | 0.0 | 0.00 | 0.00 | 0.00 | 98 | 1013.8 |
| 20260906063037 | 18 | 51 | 0.0 | 0.0 | 0.00 | 0.00 | 0.00 | 98 | 1013.7 |
| 20260906062532 | 18 | 56 | 0.0 | 0.0 | 0.00 | 0.00 | 0.00 | 98 | 1013.8 |
| 20260906062026 | 18 | 81 | 0.0 | 0.0 | 0.00 | 0.00 | 0.00 | 97 | 1013.8 |
| 20260906061523 | 18 | 53 | 0.0 | 0.0 | 0.00 | 0.00 | 0.00 | 98 | 1013.7 |
| 20260906061022 | 18 | 53 | 0.0 | 0.0 | 0.00 | 0.00 | 0.00 | 98 | 1014.1 |
| 20260906060519 | 18 | 338 | 0.0 | 0.0 | 0.00 | 0.00 | 0.00 | 98 | 1014.0 |
| 20260906060015 | 18 | 358 | 0.0 | 0.0 | 0.00 | 0.00 | 0.00 | 97 | 1013.8 |
| 20260906055511 | 18 | 325 | 0.0 | 0.0 | 0.00 | 0.00 | 0.00 | 97 | 1014.0 |
| 20260906055006 | 18 | 338 | 0.0 | 0.0 | 0.00 | 0.00 | 0.00 | 97 | 1014.1 |
| 20260906054501 | 18 | 313 | 0.0 | 0.0 | 0.00 | 0.00 | 0.00 | 97 | 1014.2 |
| 20260906053956 | 18 | 342 | 0.0 | 0.0 | 0.00 | 0.00 | 0.00 | 97 | 1014.2 |
| 20260906053453 | 18 | 4 | 0.0 | 0.0 | 0.00 | 0.00 | 0.00 | 97 | 1014.2 |
| 20260906052948 | 18 | 351 | 0.0 | 0.0 | 0.00 | 0.00 | 0.00 | 97 | 1014.0 |
| 20260906052444 | 18 | 336 | 0.0 | 0.0 | 0.00 | 0.00 | 0.00 | 97 | 1013.9 |
| 20260906051941 | 18 | 30 | 0.0 | 0.0 | 0.00 | 0.00 | 0.00 | 97 | 1014.0 |
| 20260906051436 | 18 | 28 | 0.0 | 0.0 | 0.00 | 0.00 | 0.00 | 97 | 1014.0 |
| 20260906050932 | 18 | 35 | 0.0 | 0.0 | 0.00 | 0.00 | 0.00 | 97 | 1014.1 |
| 20260906050431 | 18 | 346 | 0.0 | 0.0 | 0.00 | 0.00 | 0.00 | 97 | 1014.1 |
| 20260906045930 | 18 | 355 | 0.0 | 0.0 | 0.00 | 0.00 | 0.00 | 97 | 1014.1 |
| 20260906045429 | 18 | 315 | 0.0 | 0.0 | 0.00 | 0.00 | 0.00 | 98 | 1013.9 |
| 20260906044926 | 18 | 353 | 1.6 | 8.0 | 0.00 | 0.00 | 0.00 | 98 | 1013.8 |
| 20260906044425 | 18 | 341 | 0.0 | 0.0 | 0.00 | 0.00 | 0.00 | 97 | 1014.0 |
| 20260906043916 | 18 | 308 | 0.0 | 0.0 | 0.00 | 0.00 | 0.00 | 97 | 1013.9 |
| 20260906043411 | 18 | 333 | 0.0 | 0.0 | 0.00 | 0.00 | 0.00 | 97 | 1013.9 |
| 20260906042907 | 18 | 317 | 0.0 | 0.0 | 0.00 | 0.00 | 0.00 | 97 | 1014.1 |
| 20260906042405 | 18 | 0 | 0.0 | 0.0 | 0.00 | 0.00 | 0.00 | 97 | 1013.9 |
| 20260906041900 | 18 | 342 | 0.0 | 0.0 | 0.00 | 0.00 | 0.00 | 97 | 1014.0 |
| 20260906041356 | 18 | 343 | 1.6 | 3.2 | 0.00 | 0.00 | 0.00 | 97 | 1014.2 |
| 20260906040850 | 18 | 359 | 0.0 | 0.0 | 0.00 | 0.00 | 0.00 | 97 | 1014.1 |
| 20260906040346 | 18 | 322 | 0.0 | 0.0 | 0.00 | 0.00 | 0.00 | 97 | 1014.3 |
| 20260906035841 | 18 | 343 | 0.0 | 0.0 | 0.00 | 0.25 | 0.25 | 97 | 1014.3 |
| 20260906035336 | 18 | 22 | 4.8 | 8.0 | 0.00 | 0.25 | 0.25 | 97 | 1014.6 |
| 20260906034832 | 18 | 352 | 0.0 | 0.0 | 0.00 | 0.25 | 0.25 | 97 | 1014.6 |
| 20260906034327 | 18 | 322 | 0.0 | 0.0 | 0.00 | 0.25 | 0.25 | 97 | 1014.7 |
| 20260906033823 | 18 | 346 | 0.0 | 0.0 | 0.00 | 0.25 | 0.25 | 97 | 1014.3 |
| 20260906033321 | 18 | 338 | 0.0 | 0.0 | 0.00 | 0.25 | 0.25 | 96 | 1014.8 |
| 20260906032818 | 18 | 332 | 0.0 | 0.0 | 0.00 | 0.25 | 0.25 | 96 | 1014.6 |
| 20260906032313 | 19 | 349 | 0.0 | 0.0 | 0.00 | 0.25 | 0.25 | 95 | 1014.7 |
| 20260906031809 | 19 | 332 | 0.0 | 0.0 | 0.00 | 0.25 | 0.25 | 94 | 1014.5 |
| 20260906031304 | 19 | 316 | 0.0 | 0.0 | 0.00 | 0.25 | 0.25 | 94 | 1014.7 |
| 20260906030804 | 20 | 14 | 0.0 | 0.0 | 0.00 | 0.25 | 0.25 | 93 | 1014.9 |
| 20260906030259 | 20 | 287 | 0.0 | 0.0 | 0.00 | 0.25 | 0.25 | 92 | 1014.6 |
| 20260906025759 | 20 | 300 | 0.0 | 0.0 | 0.00 | 0.25 | 0.25 | 92 | 1014.7 |
| 20260906025253 | 20 | 324 | 0.0 | 0.0 | 0.00 | 0.25 | 0.25 | 92 | 1014.7 |
| 20260906024752 | 20 | 289 | 0.0 | 0.0 | 0.00 | 0.25 | 0.25 | 91 | 1014.6 |
| 20260906024251 | 20 | 338 | 0.0 | 0.0 | 0.00 | 0.25 | 0.25 | 91 | 1014.6 |
| 20260906023741 | 20 | 54 | 0.0 | 0.0 | 0.00 | 0.25 | 0.25 | 91 | 1014.7 |
| 20260906023237 | 20 | 29 | 0.0 | 0.0 | 0.00 | 0.25 | 0.25 | 91 | 1014.9 |
| 20260906022732 | 20 | 330 | 0.0 | 0.0 | 0.00 | 0.25 | 0.25 | 91 | 1014.5 |
| 20260906022227 | 20 | 324 | 0.0 | 0.0 | 0.00 | 0.25 | 0.25 | 91 | 1015.0 |
| 20260906021723 | 20 | 314 | 0.0 | 0.0 | 0.00 | 0.25 | 0.25 | 90 | 1014.9 |
| 20260906021222 | 20 | 50 | 0.0 | 0.0 | 0.00 | 0.25 | 0.25 | 90 | 1014.9 |
| 20260906020717 | 20 | 293 | 0.0 | 0.0 | 0.00 | 0.25 | 0.25 | 90 | 1014.8 |
| 20260906020212 | 20 | 81 | 0.0 | 0.0 | 0.00 | 0.25 | 0.25 | 89 | 1015.0 |
| 20260906015712 | 20 | 349 | 0.0 | 0.0 | 0.00 | 0.25 | 0.25 | 89 | 1014.8 |
| 20260906015204 | 20 | 326 | 0.0 | 0.0 | 0.00 | 0.25 | 0.25 | 89 | 1014.6 |
| 20260906014659 | 20 | 358 | 0.0 | 0.0 | 0.00 | 0.25 | 0.25 | 89 | 1014.7 |
| 20260906014155 | 20 | 73 | 0.0 | 0.0 | 0.00 | 0.25 | 0.25 | 89 | 1014.8 |
| 20260906013651 | 20 | 21 | 0.0 | 0.0 | 0.00 | 0.25 | 0.25 | 89 | 1014.7 |
| 20260906013146 | 20 | 286 | 0.0 | 0.0 | 0.00 | 0.25 | 0.25 | 89 | 1014.7 |
| 20260906012645 | 20 | 30 | 0.0 | 0.0 | 0.00 | 0.25 | 0.25 | 90 | 1014.5 |
| 20260906012140 | 20 | 308 | 0.0 | 0.0 | 0.00 | 0.25 | 0.25 | 90 | 1014.6 |
| 20260906011636 | 20 | 347 | 0.0 | 0.0 | 0.00 | 0.25 | 0.25 | 90 | 1014.3 |
| 20260906011130 | 20 | 356 | 0.0 | 0.0 | 0.00 | 0.25 | 0.25 | 90 | 1014.2 |
| 20260906010625 | 20 | 305 | 0.0 | 0.0 | 0.00 | 0.25 | 0.25 | 89 | 1014.2 |
| 20260906010122 | 20 | 354 | 0.0 | 0.0 | 0.00 | 0.25 | 0.25 | 89 | 1014.0 |
| 20260906005616 | 20 | 312 | 0.0 | 0.0 | 0.00 | 0.25 | 0.25 | 89 | 1014.1 |
| 20260906005115 | 20 | 61 | 0.0 | 0.0 | 0.00 | 0.25 | 0.25 | 89 | 1014.2 |
| 20260906004614 | 20 | 303 | 0.0 | 0.0 | 0.00 | 0.25 | 0.25 | 89 | 1014.1 |
| 20260906004109 | 20 | 256 | 0.0 | 0.0 | 0.00 | 0.25 | 0.25 | 90 | 1014.1 |
| 20260906003605 | 20 | 7 | 0.0 | 0.0 | 0.00 | 0.25 | 0.25 | 90 | 1013.8 |
| 20260906003100 | 20 | 332 | 0.0 | 0.0 | 0.00 | 0.25 | 0.25 | 89 | 1013.8 |
| 20260906002554 | 20 | 341 | 0.0 | 0.0 | 0.00 | 0.25 | 0.25 | 89 | 1014.0 |
| 20260906002049 | 21 | 345 | 0.0 | 0.0 | 0.00 | 0.25 | 0.25 | 88 | 1013.9 |
| 20260906001544 | 21 | 316 | 0.0 | 0.0 | 0.00 | 0.25 | 0.25 | 87 | 1014.2 |
| 20260906001038 | 21 | 50 | 0.0 | 0.0 | 0.00 | 0.25 | 0.25 | 86 | 1014.0 |
| 20260906000535 | 21 | 325 | 0.0 | 0.0 | 0.00 | 0.25 | 0.25 | 86 | 1013.9 |
| 20260906000030 | 21 | 330 | 0.0 | 0.0 | 0.00 | 0.25 | 0.25 | 86 | 1014.1 |
| 20260905235523 | 21 | 346 | 0.0 | 0.0 | 0.00 | 0.25 | 0.25 | 86 | 1013.8 |
| 20260905235018 | 21 | 332 | 0.0 | 0.0 | 0.00 | 0.25 | 0.25 | 85 | 1013.9 |
| 20260905234514 | 21 | 66 | 0.0 | 0.0 | 0.00 | 0.25 | 0.25 | 85 | 1013.8 |
| 20260905234009 | 21 | 268 | 0.0 | 0.0 | 0.00 | 0.25 | 0.25 | 85 | 1013.9 |
| 20260905233504 | 21 | 313 | 0.0 | 0.0 | 0.00 | 0.25 | 0.25 | 84 | 1014.2 |
| 20260905233003 | 21 | 324 | 0.0 | 0.0 | 0.00 | 0.25 | 0.25 | 84 | 1014.0 |
| 20260905232459 | 21 | 342 | 0.0 | 0.0 | 0.00 | 0.25 | 0.25 | 84 | 1014.1 |
| 20260905231954 | 21 | 280 | 0.0 | 0.0 | 0.00 | 0.25 | 0.25 | 83 | 1013.9 |
| 20260905231449 | 21 | 322 | 0.0 | 0.0 | 0.00 | 0.25 | 0.25 | 83 | 1014.0 |
| 20260905230946 | 22 | 330 | 0.0 | 0.0 | 0.00 | 0.25 | 0.25 | 82 | 1014.2 |
| 20260905230439 | 22 | 74 | 0.0 | 0.0 | 0.00 | 0.25 | 0.25 | 81 | 1014.2 |
| 20260905225937 | 22 | 3 | 0.0 | 0.0 | 0.00 | 0.25 | 0.25 | 81 | 1014.2 |
| 20260905225433 | 22 | 10 | 0.0 | 0.0 | 0.00 | 0.25 | 0.25 | 81 | 1014.1 |
| 20260905224932 | 22 | 324 | 0.0 | 0.0 | 0.00 | 0.25 | 0.25 | 80 | 1014.3 |
| 20260905224428 | 22 | 335 | 0.0 | 0.0 | 0.00 | 0.25 | 0.25 | 79 | 1014.3 |
| 20260905223922 | 22 | 10 | 0.0 | 0.0 | 0.00 | 0.25 | 0.25 | 79 | 1014.5 |
| 20260905223420 | 22 | 329 | 0.0 | 0.0 | 0.00 | 0.25 | 0.25 | 78 | 1014.3 |
| 20260905222915 | 23 | 314 | 0.0 | 0.0 | 0.00 | 0.25 | 0.25 | 77 | 1014.2 |
| 20260905222414 | 23 | 10 | 0.0 | 0.0 | 0.00 | 0.25 | 0.25 | 78 | 1014.2 |
| 20260905221910 | 23 | 324 | 0.0 | 0.0 | 0.00 | 0.25 | 0.25 | 77 | 1014.1 |
| 20260905221406 | 23 | 94 | 0.0 | 0.0 | 0.00 | 0.25 | 0.25 | 76 | 1014.0 |
| 20260905220856 | 23 | 317 | 0.0 | 0.0 | 0.00 | 0.25 | 0.25 | 77 | 1013.9 |
| 20260905220352 | 23 | 32 | 0.0 | 0.0 | 0.00 | 0.25 | 0.25 | 76 | 1013.8 |
| 20260905215851 | 24 | 346 | 0.0 | 0.0 | 0.00 | 0.25 | 0.25 | 76 | 1013.8 |
| 20260905215347 | 24 | 330 | 0.0 | 0.0 | 0.00 | 0.25 | 0.25 | 76 | 1013.8 |
| 20260905214844 | 24 | 334 | 0.0 | 0.0 | 0.00 | 0.25 | 0.25 | 75 | 1013.8 |
| 20260905214339 | 23 | 180 | 0.0 | 0.0 | 0.00 | 0.25 | 0.25 | 76 | 1013.7 |
| 20260905213833 | 23 | 338 | 0.0 | 0.0 | 0.00 | 0.25 | 0.25 | 76 | 1013.6 |
| 20260905213330 | 23 | 291 | 0.0 | 0.0 | 0.00 | 0.25 | 0.25 | 76 | 1013.7 |
| 20260905212824 | 23 | 184 | 0.0 | 0.0 | 0.00 | 0.25 | 0.25 | 75 | 1013.7 |
| 20260905212318 | 24 | 63 | 0.0 | 0.0 | 0.00 | 0.25 | 0.25 | 75 | 1013.6 |
| 20260905211813 | 24 | 3 | 0.0 | 0.0 | 0.00 | 0.25 | 0.25 | 73 | 1013.6 |
| 20260905211308 | 24 | 351 | 0.0 | 0.0 | 0.00 | 0.25 | 0.25 | 74 | 1013.4 |
| 20260905210805 | 25 | 39 | 0.0 | 0.0 | 0.00 | 0.25 | 0.25 | 72 | 1013.4 |
| 20260905210304 | 25 | 343 | 0.0 | 0.0 | 0.00 | 0.25 | 0.25 | 72 | 1013.7 |
| 20260905205803 | 25 | 48 | 0.0 | 0.0 | 0.00 | 0.25 | 0.25 | 71 | 1013.6 |
| 20260905205258 | 25 | 26 | 0.0 | 0.0 | 0.00 | 0.25 | 0.25 | 70 | 1013.3 |
| 20260905204757 | 25 | 274 | 0.0 | 0.0 | 0.00 | 0.25 | 0.25 | 70 | 1013.3 |
| 20260905204254 | 25 | 124 | 0.0 | 1.6 | 0.00 | 0.25 | 0.25 | 69 | 1013.5 |
| 20260905203752 | 25 | 350 | 0.0 | 0.0 | 0.00 | 0.25 | 0.25 | 68 | 1013.5 |
| 20260905203248 | 26 | 347 | 0.0 | 0.0 | 0.00 | 0.25 | 0.25 | 68 | 1013.5 |
| 20260905202744 | 26 | 15 | 0.0 | 0.0 | 0.00 | 0.25 | 0.25 | 68 | 1013.5 |
| 20260905202238 | 25 | 2 | 0.0 | 0.0 | 0.00 | 0.25 | 0.25 | 68 | 1013.5 |
| 20260905201734 | 25 | 2 | 0.0 | 0.0 | 0.00 | 0.25 | 0.25 | 67 | 1013.5 |
| 20260905201229 | 25 | 185 | 1.6 | 8.0 | 0.00 | 0.25 | 0.25 | 65 | 1013.6 |
| 20260905200724 | 26 | 289 | 0.0 | 0.0 | 0.00 | 0.25 | 0.25 | 65 | 1013.4 |
| 20260905200220 | 25 | 200 | 0.0 | 0.0 | 0.00 | 0.25 | 0.25 | 65 | 1013.4 |
| 20260905195718 | 25 | 30 | 0.0 | 0.0 | 0.00 | 0.25 | 0.25 | 67 | 1013.3 |
| 20260905195212 | 25 | 181 | 0.0 | 0.0 | 0.00 | 0.25 | 0.25 | 69 | 1013.5 |
| 20260905194708 | 25 | 352 | 0.0 | 0.0 | 0.00 | 0.25 | 0.25 | 67 | 1013.7 |
| 20260905194208 | 25 | 332 | 0.0 | 0.0 | 0.00 | 0.25 | 0.25 | 69 | 1013.6 |
| 20260905193702 | 25 | 321 | 0.0 | 0.0 | 0.00 | 0.25 | 0.25 | 68 | 1013.8 |
| 20260905193157 | 25 | 321 | 0.0 | 0.0 | 0.00 | 0.25 | 0.25 | 69 | 1014.1 |
| 20260905192653 | 25 | 341 | 0.0 | 0.0 | 0.00 | 0.25 | 0.25 | 67 | 1013.8 |
| 20260905192149 | 25 | 232 | 0.0 | 0.0 | 0.00 | 0.25 | 0.25 | 69 | 1014.0 |
| 20260905191648 | 25 | 127 | 0.0 | 0.0 | 0.00 | 0.25 | 0.25 | 70 | 1014.0 |
| 20260905191145 | 26 | 48 | 0.0 | 0.0 | 0.00 | 0.25 | 0.25 | 69 | 1014.1 |
| 20260905190639 | 25 | 257 | 0.0 | 0.0 | 0.00 | 0.25 | 0.25 | 71 | 1014.0 |
| 20260905190138 | 25 | 17 | 0.0 | 0.0 | 0.00 | 0.25 | 0.25 | 75 | 1014.3 |
| 20260905185637 | 25 | 264 | 0.0 | 0.0 | 0.00 | 0.25 | 0.25 | 73 | 1014.3 |
| 20260905185132 | 25 | 319 | 0.0 | 1.6 | 0.00 | 0.25 | 0.25 | 73 | 1014.5 |
| 20260905184626 | 25 | 288 | 0.0 | 0.0 | 0.00 | 0.25 | 0.25 | 72 | 1014.7 |
| 20260905184125 | 25 | 343 | 0.0 | 0.0 | 0.00 | 0.25 | 0.25 | 72 | 1014.7 |
| 20260905183624 | 25 | 351 | 0.0 | 0.0 | 0.00 | 0.25 | 0.25 | 71 | 1014.6 |
| 20260905183120 | 25 | 60 | 0.0 | 0.0 | 0.00 | 0.25 | 0.25 | 71 | 1014.6 |
| 20260905182614 | 25 | 325 | 0.0 | 0.0 | 0.00 | 0.25 | 0.25 | 71 | 1014.6 |
| 20260905182113 | 25 | 268 | 0.0 | 0.0 | 0.00 | 0.25 | 0.25 | 71 | 1014.7 |
| 20260905181608 | 25 | 323 | 0.0 | 0.0 | 0.00 | 0.25 | 0.25 | 69 | 1014.9 |
| 20260905181107 | 25 | 46 | 0.0 | 4.8 | 0.00 | 0.25 | 0.25 | 72 | 1014.6 |
| 20260905180602 | 25 | 349 | 0.0 | 0.0 | 0.00 | 0.25 | 0.25 | 71 | 1014.6 |
| 20260905180058 | 25 | 285 | 0.0 | 0.0 | 0.00 | 0.25 | 0.25 | 77 | 1014.7 |
| 20260905175556 | 25 | 346 | 0.0 | 0.0 | 0.00 | 0.25 | 0.25 | 75 | 1014.8 |
| 20260905175052 | 25 | 353 | 0.0 | 0.0 | 0.00 | 0.25 | 0.25 | 75 | 1015.0 |
| 20260905174548 | 25 | 199 | 0.0 | 0.0 | 0.00 | 0.25 | 0.25 | 77 | 1015.1 |
| 20260905174043 | 25 | 246 | 0.0 | 0.0 | 0.00 | 0.25 | 0.25 | 79 | 1015.4 |
| 20260905173540 | 24 | 105 | 0.0 | 0.0 | 0.00 | 0.25 | 0.25 | 78 | 1015.0 |
| 20260905173035 | 23 | 22 | 0.0 | 0.0 | 0.00 | 0.25 | 0.25 | 81 | 1015.3 |
| 20260905172533 | 23 | 36 | 0.0 | 0.0 | 0.00 | 0.25 | 0.25 | 83 | 1015.4 |
| 20260905172029 | 23 | 13 | 0.0 | 0.0 | 0.00 | 0.25 | 0.25 | 83 | 1015.3 |
| 20260905171525 | 22 | 329 | 0.0 | 0.0 | 0.00 | 0.25 | 0.25 | 85 | 1015.5 |
| 20260905171021 | 22 | 38 | 0.0 | 0.0 | 0.00 | 0.25 | 0.25 | 86 | 1015.3 |
| 20260905170518 | 22 | 359 | 0.0 | 0.0 | 0.00 | 0.25 | 0.25 | 84 | 1015.3 |
| 20260905170012 | 22 | 78 | 0.0 | 0.0 | 0.00 | 0.25 | 0.25 | 84 | 1015.2 |
| 20260905165507 | 22 | 260 | 0.0 | 0.0 | 0.00 | 0.25 | 0.25 | 85 | 1015.3 |
| 20260905164956 | 23 | 75 | 0.0 | 0.0 | 0.00 | 0.25 | 0.25 | 84 | 1015.3 |
| 20260905164455 | 23 | 292 | 0.0 | 0.0 | 0.00 | 0.25 | 0.25 | 83 | 1015.1 |
| 20260905163950 | 22 | 309 | 0.0 | 0.0 | 0.00 | 0.25 | 0.25 | 84 | 1015.3 |
| 20260905163447 | 22 | 88 | 0.0 | 0.0 | 0.00 | 0.25 | 0.25 | 88 | 1015.0 |
| 20260905162943 | 21 | 171 | 0.0 | 0.0 | 0.00 | 0.25 | 0.25 | 90 | 1015.0 |
| 20260905162438 | 21 | 178 | 0.0 | 0.0 | 0.00 | 0.25 | 0.25 | 92 | 1014.9 |
| 20260905161933 | 20 | 197 | 0.0 | 0.0 | 0.00 | 0.25 | 0.25 | 93 | 1014.9 |
| 20260905161432 | 20 | 193 | 0.0 | 0.0 | 0.00 | 0.25 | 0.25 | 94 | 1014.9 |
| 20260905160930 | 20 | 165 | 0.0 | 0.0 | 0.00 | 0.25 | 0.25 | 94 | 1014.9 |
| 20260905160424 | 20 | 203 | 0.0 | 0.0 | 0.00 | 0.25 | 0.25 | 93 | 1015.3 |
| 20260905155918 | 20 | 193 | 0.0 | 0.0 | 0.00 | 0.25 | 0.25 | 92 | 1015.4 |
| 20260905155418 | 20 | 173 | 0.0 | 0.0 | 0.00 | 0.25 | 0.25 | 92 | 1015.9 |
| 20260905154917 | 20 | 197 | 0.0 | 0.0 | 0.00 | 0.25 | 0.25 | 92 | 1015.9 |
| 20260905154413 | 21 | 242 | 0.0 | 0.0 | 0.00 | 0.25 | 0.25 | 88 | 1015.9 |
| 20260905153909 | 21 | 32 | 0.0 | 0.0 | 0.00 | 0.25 | 0.25 | 89 | 1016.1 |
| 20260905153405 | 21 | 354 | 0.0 | 0.0 | 0.00 | 0.25 | 0.25 | 89 | 1016.4 |
| 20260905152904 | 20 | 350 | 0.0 | 0.0 | 0.00 | 0.25 | 0.25 | 89 | 1016.5 |
| 20260905152403 | 21 | 359 | 0.0 | 0.0 | 0.00 | 0.25 | 0.25 | 88 | 1016.3 |
| 20260905151859 | 20 | 188 | 0.0 | 0.0 | 0.00 | 0.25 | 0.25 | 91 | 1016.5 |
| 20260905151354 | 20 | 74 | 6.4 | 11.3 | 0.00 | 0.25 | 0.25 | 92 | 1016.5 |
| 20260905150849 | 20 | 36 | 0.0 | 0.0 | 0.00 | 0.25 | 0.25 | 93 | 1016.6 |
| 20260905150343 | 20 | 352 | 3.2 | 8.0 | 0.00 | 0.25 | 0.25 | 93 | 1016.6 |
| 20260905145840 | 20 | 342 | 0.0 | 0.0 | 0.00 | 0.25 | 0.25 | 94 | 1016.9 |
| 20260905145334 | 20 | 11 | 0.0 | 0.0 | 0.00 | 0.25 | 0.25 | 94 | 1016.8 |
| 20260905144834 | 20 | 342 | 0.0 | 0.0 | 0.00 | 0.25 | 0.25 | 96 | 1016.5 |
| 20260905144329 | 19 | 309 | 0.0 | 0.0 | 0.00 | 0.25 | 0.25 | 97 | 1016.8 |
| 20260905143828 | 18 | 348 | 0.0 | 0.0 | 0.00 | 0.25 | 0.25 | 97 | 1016.4 |
| 20260905143322 | 18 | 329 | 0.0 | 0.0 | 0.00 | 0.25 | 0.25 | 97 | 1016.3 |
| 20260905142822 | 18 | 27 | 0.0 | 0.0 | 0.00 | 0.25 | 0.25 | 96 | 1016.4 |
| 20260905142315 | 18 | 8 | 0.0 | 0.0 | 0.00 | 0.25 | 0.25 | 96 | 1016.4 |
| 20260905141812 | 18 | 17 | 0.0 | 0.0 | 0.71 | 0.25 | 0.25 | 96 | 1016.8 |
| 20260905141307 | 18 | 3 | 1.6 | 11.3 | 1.37 | 0.25 | 0.25 | 96 | 1016.3 |
| 20260905140803 | 18 | 4 | 12.9 | 16.1 | 1.37 | 0.23 | 0.23 | 94 | 1016.1 |
| 20260905140302 | 19 | 104 | 6.4 | 14.5 | 0.30 | 0.05 | 0.05 | 94 | 1016.9 |
| 20260905135801 | 20 | 3 | 9.7 | 16.1 | 0.00 | 0.00 | 0.00 | 93 | 1016.5 |
| 20260905135258 | 20 | 259 | 11.3 | 20.9 | 0.00 | 0.00 | 0.00 | 92 | 1016.6 |
| 20260905134758 | 21 | 324 | 9.7 | 16.1 | 0.00 | 0.00 | 0.00 | 91 | 1016.9 |
| 20260905134257 | 22 | 348 | 1.6 | 12.9 | 0.00 | 0.00 | 0.00 | 87 | 1016.2 |
| 20260905133751 | 23 | 315 | 0.0 | 0.0 | 0.00 | 0.00 | 0.00 | 84 | 1015.5 |
| 20260905133247 | 23 | 352 | 6.4 | 11.3 | 0.00 | 0.00 | 0.00 | 84 | 1015.5 |
| 20260905132746 | 23 | 303 | 4.8 | 11.3 | 0.00 | 0.00 | 0.00 | 84 | 1015.7 |
| 20260905132241 | 23 | 299 | 1.6 | 9.7 | 0.00 | 0.00 | 0.00 | 83 | 1015.4 |
| 20260905131736 | 23 | 303 | 8.0 | 17.7 | 0.00 | 0.00 | 0.00 | 83 | 1015.4 |
| 20260905131231 | 23 | 276 | 0.0 | 0.0 | 0.00 | 0.00 | 0.00 | 83 | 1015.5 |
| 20260905130726 | 23 | 272 | 0.0 | 0.0 | 0.00 | 0.00 | 0.00 | 82 | 1015.3 |
| 20260905130225 | 23 | 345 | 0.0 | 0.0 | 0.00 | 0.00 | 0.00 | 83 | 1015.4 |
| 20260905125720 | 23 | 351 | 0.0 | 0.0 | 0.00 | 0.00 | 0.00 | 83 | 1015.4 |
| 20260905125215 | 23 | 320 | 0.0 | 0.0 | 0.00 | 0.00 | 0.00 | 81 | 1015.2 |
| 20260905124712 | 23 | 311 | 0.0 | 0.0 | 0.00 | 0.00 | 0.00 | 82 | 1015.1 |
| 20260905124208 | 23 | 94 | 0.0 | 0.0 | 0.00 | 0.00 | 0.00 | 81 | 1015.2 |
| 20260905123703 | 23 | 297 | 0.0 | 0.0 | 0.00 | 0.00 | 0.00 | 83 | 1015.4 |
| 20260905123200 | 22 | 57 | 1.6 | 9.7 | 0.00 | 0.00 | 0.00 | 85 | 1015.4 |
| 20260905122659 | 22 | 234 | 0.0 | 3.2 | 0.00 | 0.00 | 0.00 | 85 | 1015.2 |
| 20260905122154 | 22 | 312 | 1.6 | 4.8 | 0.00 | 0.00 | 0.00 | 85 | 1015.3 |
| 20260905121648 | 22 | 327 | 0.0 | 0.0 | 0.00 | 0.00 | 0.00 | 85 | 1015.2 |
| 20260905121144 | 22 | 322 | 0.0 | 0.0 | 0.00 | 0.00 | 0.00 | 84 | 1015.4 |
| 20260905120643 | 22 | 268 | 0.0 | 0.0 | 0.00 | 0.00 | 0.00 | 84 | 1015.4 |
| 20260905120138 | 22 | 116 | 0.0 | 0.0 | 0.00 | 0.00 | 0.00 | 84 | 1015.2 |
| 20260905115632 | 22 | 320 | 0.0 | 0.0 | 0.00 | 0.00 | 0.00 | 86 | 1015.2 |
| 20260905115127 | 22 | 322 | 0.0 | 1.6 | 0.00 | 0.00 | 0.00 | 86 | 1015.2 |
| 20260905114626 | 22 | 219 | 0.0 | 0.0 | 0.00 | 0.00 | 0.00 | 86 | 1015.0 |
| 20260905114125 | 22 | 34 | 0.0 | 0.0 | 0.00 | 0.00 | 0.00 | 85 | 1015.3 |
| 20260905113620 | 22 | 333 | 0.0 | 0.0 | 0.00 | 0.00 | 0.00 | 86 | 1015.0 |
| 20260905113115 | 22 | 358 | 0.0 | 0.0 | 0.00 | 0.00 | 0.00 | 86 | 1014.9 |
| 20260905112610 | 22 | 18 | 0.0 | 0.0 | 0.00 | 0.00 | 0.00 | 86 | 1014.9 |
| 20260905112105 | 22 | 200 | 0.0 | 0.0 | 0.00 | 0.00 | 0.00 | 86 | 1015.1 |
| 20260905111555 | 22 | 327 | 0.0 | 0.0 | 0.00 | 0.00 | 0.00 | 86 | 1015.2 |
| 20260905111054 | 22 | 325 | 0.0 | 0.0 | 0.00 | 0.00 | 0.00 | 86 | 1014.8 |
| 20260905110553 | 22 | 293 | 0.0 | 1.6 | 0.00 | 0.00 | 0.00 | 86 | 1015.1 |